SARAL

Last updated on Wed Sep 17 2025 00:02:30 GMT+0000 (Coordinated Universal Time)

1 39086U 13009A 25259.57147813 .00000108 00000+0 55720-4 0 9999 2 39086 98.5551 84.6251 0002507 42.6765 317.4614 14.32711029656420
UTC large
Height (km)
Speed (km/s)
/
Latitude / Longitude
Inclination (degrees)
Orbital Period (minutes)
Azimuth
Elevation
Range (km)
Doppler Factor

Next 0 passes for location: London (51.5072 / 0.1276)

Sorry there are no passes over London.